ドゥ・トイト彗星

66P/du Toit (2018)

English version
Home page
Updated on July 17, 2018

---------------------------------------------------------------------

・ プロフィール

・ 写真集

・ 軌道要素

Epoch 2018 May 2.0 TT = JDT 2458240.5
T 2018 May 19.15935 TT                                  MPCW
q   1.2901046            (2000.0)            P               Q
n   0.06616870     Peri.  257.21317     +0.13917370     +0.98304204
a   6.0538869      Node    21.89631     -0.73799241     +0.18336643
e   0.7868965      Incl.   18.67496     -0.66030136     +0.00225740
P  14.90
From 152 observations 1974 Mar. 22-2018 Feb. 25, mean residual 0".8.
     Nongravitational parameters A1 = -0.01, A2 = -0.0088.

・ 星図

・ 光度変化

        m1 = 13.0 + 5 logΔ + 15.0 log r  [   ,-58]  (              〜2018年 3月22日)
        m1 =  1.5 + 5 logΔ + 80   log r  [-58,  0]  (2018年 3月22日〜2018年 5月19日)
        m1 =  7.0 + 5 logΔ + 30.0 log r  [  0,   ]  (2018年 5月19日〜              )

---------------------------------------------------------------------

軌道要素はM.P.E.C. 2018-D91に掲載されたものです。
星図はステラナビゲータ Ver.8 (アストロアーツ) で作成したものです。
光度グラフはComet for Windowsで作成したものです。

---------------------------------------------------------------------

Copyright(C) Seiichi Yoshida (comet@aerith.net). All rights reserved.